Weather History for PAKP - November, 2011

Change the Weather History Date:

Wednesday, November 2, 2011

  Actual Average Record
Temperature  
Mean Temperature -2 °F -  
Max Temperature 5 °F 6 °F 30 °F (2003)
Min Temperature -9 °F 0 °F -23 °F (1999)
Degree Days  
Heating Degree Days 67    
Moisture  
Dew Point -9 °F    
Average Humidity 75    
Maximum Humidity 92    
Minimum Humidity 41    
Precipitation  
Precipitation 0.00 in - - ()
Sea Level Pressure  
Sea Level Pressure 30.07 in    
Wind  
Wind Speed 8 mph (South)    
Max Wind Speed 21 mph    
Max Gust Speed 22 mph    
Visibility 5 miles    
Events      
Averages and records for this station are not official NWS values.
T = Trace of Precipitation, MM = Missing Value Source: NWS Daily Summary

Daily Weather History Graph

Daily Weather History Graph

Search for Another Location

Airport or City:

Trip Planner

Search our weather history database for the weather conditions in past years. The results will help you decide how hot, cold, wet, or windy it might be!

Date:

Astronomy

Nov. 02, 2011 Rise Set
Actual Time 10:23 AM AKDT 5:16 PM AKDT
Civil Twilight 9:16 AM AKDT 6:22 PM AKDT
Nautical Twilight 8:08 AM AKDT 7:30 PM AKDT
Astronomical Twilight 7:04 AM AKDT 8:35 PM AKDT
Moon 4:34 PM AKDT (11/2) No Moon Set
Length of Visible Light 9h 06m
Length of Day
6h 53m
First Quarter, 51% of the Moon is Illuminated
Nov 2
First Quarter
Nov 10
Full
Nov 18
Last Quarter
Nov 24
New
Dec 2
First Quarter

Hourly Weather History & Observations

Time (AKDT) Temp. Windchill Dew Point Humidity Pressure Visibility Wind Dir Wind Speed Gust Speed Precip Events Conditions
12:16 AM 1.4 °F -12.5 °F -2.2 °F 85% 29.91 in 1.8 mi South 8.1 mph - N/A   Overcast
12:36 AM 1.4 °F -15.3 °F -2.2 °F 85% 29.91 in 1.8 mi South 11.5 mph - N/A   Overcast
12:56 AM -0.4 °F -16.7 °F -5.8 °F 78% 29.93 in 1.8 mi South 10.4 mph - N/A   Overcast
1:56 AM -0.4 °F -16.7 °F -5.8 °F 78% 29.96 in 2.5 mi South 10.4 mph - N/A   Overcast
2:56 AM -0.4 °F -14.7 °F -4.0 °F 85% 29.98 in 2.0 mi South 8.1 mph - N/A   Overcast
3:16 AM 1.4 °F -8.3 °F -4.0 °F 78% 29.99 in 2.0 mi South 4.6 mph - N/A   Overcast
3:36 AM 1.4 °F -9.9 °F -2.2 °F 85% 30.00 in 1.8 mi SSW 5.8 mph - N/A   Overcast
3:56 AM 1.4 °F -6.2 °F -2.2 °F 85% 30.00 in 2.0 mi SW 3.5 mph - N/A   Overcast
4:16 AM 1.4 °F -9.9 °F -2.2 °F 85% 30.01 in 2.0 mi South 5.8 mph - N/A   Overcast
4:36 AM 1.4 °F - -2.2 °F 85% 30.02 in 2.5 mi Calm Calm - N/A   Overcast
4:56 AM 1.4 °F - -0.4 °F 92% 30.02 in 2.5 mi Calm Calm - N/A   Overcast
5:16 AM 3.2 °F -4.2 °F -0.4 °F 85% 30.02 in 3.0 mi South 3.5 mph - N/A   Overcast
5:36 AM 3.2 °F -4.2 °F -0.4 °F 85% 30.03 in 3.0 mi WSW 3.5 mph - N/A   Overcast
5:56 AM 3.2 °F - -0.4 °F 85% 30.04 in 3.0 mi Calm Calm - N/A   Overcast
6:16 AM 3.2 °F -4.2 °F 1.4 °F 92% 30.04 in 5.0 mi South 3.5 mph - N/A   Overcast
6:36 AM 5.0 °F -2.1 °F -0.4 °F 78% 30.05 in 5.0 mi SSW 3.5 mph - N/A   Overcast
6:56 AM 3.2 °F -9.1 °F -0.4 °F 85% 30.06 in 6.0 mi South 6.9 mph - N/A   Overcast
7:16 AM 1.4 °F -11.3 °F -2.2 °F 85% 30.06 in 7.0 mi South 6.9 mph - N/A   Overcast
7:36 AM 1.4 °F -11.3 °F -2.2 °F 85% 30.07 in 9.0 mi South 6.9 mph - N/A   Overcast
7:56 AM 1.4 °F -9.9 °F -4.0 °F 78% 30.07 in 10.0 mi South 5.8 mph - N/A   Overcast
8:16 AM -0.4 °F -12.0 °F -5.8 °F 78% 30.07 in 10.0 mi South 5.8 mph - N/A   Overcast
8:36 AM -0.4 °F -13.4 °F -5.8 °F 78% 30.08 in 10.0 mi South 6.9 mph - N/A   Overcast
8:56 AM -0.4 °F -15.7 °F -5.8 °F 78% 30.09 in 10.0 mi South 9.2 mph - N/A   Overcast
9:16 AM -0.4 °F -12.0 °F -5.8 °F 78% 30.09 in 10.0 mi SW 5.8 mph - N/A   Overcast
9:36 AM -0.4 °F -8.3 °F -4.0 °F 85% 30.10 in 10.0 mi South 3.5 mph - N/A   Overcast
9:56 AM -0.4 °F -13.4 °F -4.0 °F 85% 30.10 in 10.0 mi South 6.9 mph - N/A   Overcast
10:16 AM -0.4 °F -12.0 °F -5.8 °F 78% 30.10 in 5.0 mi South 5.8 mph - N/A   Overcast
10:36 AM -0.4 °F -8.3 °F -7.6 °F 72% 30.10 in 10.0 mi SSW 3.5 mph - N/A   Overcast
10:56 AM -0.4 °F -13.4 °F -2.2 °F 92% 30.10 in 10.0 mi South 6.9 mph - N/A   Overcast
11:16 AM -0.4 °F -12.0 °F -5.8 °F 78% 30.10 in 10.0 mi SSE 5.8 mph - N/A   Overcast
11:36 AM -0.4 °F -10.4 °F -5.8 °F 78% 30.10 in 10.0 mi SSW 4.6 mph - N/A   Overcast
11:56 AM -0.4 °F -14.7 °F -5.8 °F 78% 30.10 in 10.0 mi South 8.1 mph - N/A   Mostly Cloudy
12:16 PM -4.0 °F -21.2 °F -11.2 °F 71% 30.11 in 10.0 mi South 10.4 mph - N/A   Partly Cloudy
12:36 PM -5.8 °F -23.4 °F -11.2 °F 77% 30.11 in 10.0 mi SSW 10.4 mph - N/A   Clear
12:56 PM -4.0 °F -17.8 °F -9.4 °F 78% 30.11 in 5.0 mi SW 6.9 mph - N/A   Mostly Cloudy
1:16 PM -5.8 °F -16.7 °F -11.2 °F 77% 30.11 in 10.0 mi SSW 4.6 mph - N/A   Partly Cloudy
1:36 PM -7.6 °F -28.3 °F -11.2 °F 84% 30.11 in 5.0 mi SSW 13.8 mph - N/A   Partly Cloudy
1:56 PM -9.4 °F -22.7 °F -14.8 °F 77% 30.11 in 2.5 mi SSW 5.8 mph - N/A   Scattered Clouds
2:16 PM -7.6 °F -24.6 °F -11.2 °F 84% 30.12 in 3.0 mi South 9.2 mph - N/A   Partly Cloudy
2:36 PM -7.6 °F -28.3 °F -11.2 °F 84% 30.11 in 2.5 mi South 13.8 mph 17.3 mph N/A   Clear
2:56 PM -7.6 °F -29.1 °F -11.2 °F 84% 30.11 in 1.5 mi SSW 15.0 mph - N/A   Scattered Clouds
3:16 PM -7.6 °F -29.1 °F -14.8 °F 71% 30.11 in 5.0 mi South 15.0 mph - N/A   Mostly Cloudy
3:36 PM -7.6 °F -28.3 °F -25.6 °F 41% 30.11 in 3.0 mi South 13.8 mph - N/A   Overcast
3:56 PM -7.6 °F -26.6 °F -25.6 °F 41% 30.10 in 5.0 mi SSW 11.5 mph - N/A   Overcast
4:16 PM -9.4 °F -24.3 °F -25.6 °F 45% 30.10 in 4.0 mi SSW 6.9 mph - N/A   Mostly Cloudy
4:36 PM -9.4 °F -28.9 °F -27.4 °F 41% 30.10 in 4.0 mi South 11.5 mph - N/A   Mostly Cloudy
4:56 PM -7.6 °F -25.7 °F -22.0 °F 50% 30.09 in 4.0 mi South 10.4 mph - N/A   Overcast
5:16 PM -7.6 °F -25.7 °F -18.4 °F 59% 30.09 in 4.0 mi SSW 10.4 mph - N/A   Overcast
5:36 PM -5.8 °F -24.4 °F -18.4 °F 55% 30.09 in 5.0 mi South 11.5 mph - N/A   Overcast
5:56 PM -5.8 °F -26.0 °F -14.8 °F 65% 30.08 in 3.0 mi South 13.8 mph 17.3 mph N/A   Overcast
6:16 PM -7.6 °F -29.1 °F -16.6 °F 65% 30.08 in 1.2 mi South 15.0 mph - N/A   Overcast
6:36 PM -7.6 °F -29.8 °F -16.6 °F 65% 30.08 in 0.8 mi South 16.1 mph 21.9 mph N/A   Overcast
6:56 PM -5.8 °F -29.9 °F -16.6 °F 60% 30.07 in 1.2 mi South 20.7 mph - N/A   Overcast
7:16 PM -5.8 °F -29.4 °F -13.0 °F 71% 30.08 in 1.8 mi South 19.6 mph - N/A   Overcast
7:36 PM -5.8 °F -26.0 °F -16.6 °F 60% 30.08 in 3.0 mi South 13.8 mph - N/A   Overcast
7:56 PM -5.8 °F -26.8 °F -14.8 °F 65% 30.08 in 2.5 mi SSE 15.0 mph - N/A   Overcast
8:16 PM -5.8 °F -26.8 °F -14.8 °F 65% 30.08 in 2.0 mi South 15.0 mph 18.4 mph N/A   Overcast
8:36 PM -5.8 °F -25.2 °F -11.2 °F 77% 30.07 in 2.5 mi South 12.7 mph - N/A   Overcast
8:56 PM -5.8 °F -27.5 °F -14.8 °F 65% 30.07 in 3.0 mi South 16.1 mph 20.7 mph N/A   Overcast
9:16 PM -5.8 °F -28.8 °F -14.8 °F 65% 30.07 in 2.5 mi SSE 18.4 mph - N/A   Overcast
9:36 PM -5.8 °F -29.4 °F -13.0 °F 71% 30.07 in 2.0 mi SSE 19.6 mph - N/A   Overcast
9:56 PM -5.8 °F -26.0 °F -13.0 °F 71% 30.08 in 1.8 mi SSE 13.8 mph - N/A   Overcast
10:16 PM -5.8 °F -28.8 °F -11.2 °F 77% 30.07 in 3.0 mi South 18.4 mph - N/A   Overcast
10:36 PM -5.8 °F -28.2 °F -13.0 °F 71% 30.08 in 3.0 mi South 17.3 mph 23.0 mph N/A   Overcast
10:56 PM -5.8 °F -22.4 °F -14.8 °F 65% 30.08 in 3.0 mi SSE 9.2 mph - N/A   Overcast
11:16 PM -5.8 °F -26.0 °F -13.0 °F 71% 30.07 in 8.0 mi South 13.8 mph - N/A   Overcast
11:36 PM -5.8 °F -23.4 °F -13.0 °F 71% 30.08 in 5.0 mi South 10.4 mph - N/A   Overcast
11:56 PM -5.8 °F -21.2 °F -14.8 °F 65% 30.08 in 4.0 mi SE 8.1 mph - N/A   Overcast